EW8682 Weather Reports


Display with metric or nautical units.
time (UTC)temp
F
wind
direction
speed
MPH
gust
MPH
rain 1hr
in
rain 24hr
in
rain mn
in
humidity
%
barometer
mb
20260510063052 57 149 1.0 2.0 0.00 0.00 0.00 80 1004.6
20260510061551 58 149 1.0 2.0 0.00 0.00 0.00 79 1004.7
20260510060051 59 150 1.0 2.0 0.00 0.00 0.00 79 1004.8
20260510054550 59 153 2.0 3.0 0.00 0.00 0.00 79 1004.7
20260510053050 60 157 2.0 3.0 0.00 0.00 0.00 78 1004.9
20260510051553 60 159 1.0 2.0 0.00 0.00 0.00 77 1004.8
20260510050053 61 161 1.0 5.0 0.00 0.00 0.00 75 1004.9
20260510044548 61 178 2.0 3.0 0.00 0.00 0.00 75 1004.9
20260510043048 62 187 1.0 2.0 0.00 0.00 0.00 74 1004.8
20260510041547 63 187 1.0 2.0 0.00 0.00 0.00 74 1004.6
20260510040048 64 187 1.0 3.0 0.00 0.00 0.00 72 1004.3
20260510034607 65 188 1.0 2.0 0.00 0.00 0.00 70 1004.2
20260510033051 66 188 1.0 3.0 0.00 0.00 0.00 68 1004.0
20260510031545 69 188 0.0 2.0 0.00 0.00 0.00 63 1003.8
20260510030044 70 188 0.0 2.0 0.00 0.00 0.00 60 1003.5
20260510024646 72 188 0.0 2.0 0.00 0.00 0.00 58 1003.4
20260510023043 73 188 1.0 3.0 0.00 0.00 0.00 57 1003.3
20260510021548 74 185 1.0 4.0 0.00 0.00 0.00 53 1003.2
20260510020042 75 180 2.0 3.0 0.00 0.00 0.00 53 1003.1
20260510014546 76 197 2.0 5.0 0.00 0.00 0.00 50 1003.0
20260510013042 77 186 2.0 5.0 0.00 0.00 0.00 49 1003.0
20260510011542 78 176 2.0 5.0 0.00 0.00 0.00 48 1002.9
20260510010045 79 180 3.0 7.0 0.00 0.00 0.00 47 1002.8
20260510004539 81 175 3.0 7.0 0.00 0.00 0.00 45 1002.8
20260510003050 82 190 2.0 7.0 0.00 0.00 0.00 44 1002.8
20260510001538 82 170 2.0 7.0 0.00 0.00 0.00 43 1002.8
20260510000037 83 171 2.0 8.0 0.00 0.00 0.00 42 1002.8
20260509234534 82 173 1.0 7.0 0.00 0.00 0.00 44 1002.7
20260509233034 82 198 2.0 6.0 0.00 0.00 0.00 44 1002.8
20260509231534 82 190 3.0 6.0 0.00 0.00 0.00 44 1002.9
20260509230029 82 169 2.0 8.0 0.00 0.00 0.00 45 1003.0
20260509224528 82 198 2.0 9.0 0.00 0.00 0.00 46 1003.2
20260509223026 82 181 4.0 10.0 0.00 0.00 0.00 46 1003.3
20260509221524 82 182 3.0 8.0 0.00 0.00 0.00 46 1003.5
20260509220027 82 204 4.0 10.0 0.00 0.00 0.00 46 1003.5
20260509214519 82 183 4.0 8.0 0.00 0.00 0.00 46 1003.7
20260509213019 82 174 4.0 7.0 0.00 0.00 0.00 46 1003.9
20260509211519 82 179 4.0 8.0 0.00 0.00 0.00 46 1004.0
20260509210012 81 177 2.0 5.0 0.00 0.00 0.00 47 1004.1
20260509204512 81 171 4.0 7.0 0.00 0.00 0.00 47 1004.3
20260509203020 80 227 3.0 7.0 0.00 0.00 0.00 47 1004.4
20260509201504 80 187 2.0 7.0 0.00 0.00 0.00 48 1004.6
20260509200004 80 182 3.0 7.0 0.00 0.00 0.00 48 1004.6
20260509194600 79 177 1.0 5.0 0.00 0.00 0.00 49 1004.6
20260509193056 78 196 4.0 8.0 0.00 0.00 0.00 48 1004.8
20260509191554 77 173 3.0 5.0 0.00 0.00 0.00 47 1004.9
20260509190049 76 242 2.0 6.0 0.00 0.00 0.00 49 1005.1
20260509184548 75 256 2.0 5.0 0.00 0.00 0.00 52 1005.3
20260509183059 74 192 2.0 6.0 0.00 0.00 0.00 54 1005.4
20260509181539 73 186 1.0 5.0 0.00 0.00 0.00 55 1005.4
20260509180034 72 190 4.0 7.0 0.00 0.00 0.00 56 1005.6
20260509174544 71 198 1.0 5.0 0.00 0.00 0.00 57 1005.6
20260509173027 69 211 2.0 5.0 0.00 0.00 0.00 61 1005.5
20260509171531 68 220 2.0 5.0 0.00 0.00 0.00 65 1005.6
20260509170019 66 209 2.0 4.0 0.00 0.00 0.00 68 1005.5
20260509164514 64 205 1.0 3.0 0.00 0.00 0.00 73 1005.4
20260509163012 63 196 1.0 5.0 0.00 0.00 0.00 77 1005.6
20260509161506 61 172 1.0 4.0 0.00 0.00 0.00 82 1005.7
20260509160002 59 161 1.0 3.0 0.00 0.00 0.00 86 1005.8
20260509154601 58 143 1.0 3.0 0.00 0.00 0.00 89 1005.7
20260509153057 57 138 0.0 3.0 0.00 0.00 0.00 91 1005.8
20260509151558 56 137 1.0 3.0 0.00 0.00 0.00 93 1005.8
20260509150057 55 107 0.0 2.0 0.00 0.00 0.00 94 1005.8
20260509144556 54 108 0.0 0.0 0.00 0.00 0.00 94 1005.6
20260509143059 54 108 0.0 3.0 0.00 0.00 0.00 94 1005.5
20260509141558 54 108 0.0 2.0 0.00 0.00 0.00 94 1005.6
20260509140058 53 108 0.0 2.0 0.00 0.00 0.00 93 1005.6
20260509134544 53 109 0.0 2.0 0.00 0.00 0.00 93 1005.6
20260509133042 54 109 0.0 2.0 0.00 0.00 0.00 93 1005.5
20260509131542 53 109 0.0 3.0 0.00 0.00 0.00 93 1005.4
20260509130041 54 109 0.0 2.0 0.00 0.00 0.00 93 1005.3
20260509124540 54 109 0.0 2.0 0.00 0.00 0.00 93 1005.1
20260509123047 54 109 0.0 1.0 0.00 0.00 0.00 93 1005.1
20260509121539 54 109 0.0 2.0 0.00 0.00 0.00 92 1005.0
20260509120040 54 109 0.0 0.0 0.00 0.00 0.00 93 1005.0
20260509114536 54 109 0.0 1.0 0.00 0.00 0.00 93 1005.0
20260509113034 53 109 0.0 2.0 0.00 0.00 0.00 92 1005.1
20260509111534 52 109 0.0 2.0 0.00 0.00 0.00 92 1005.1
20260509110033 51 109 0.0 0.0 0.00 0.00 0.00 91 1005.2
20260509104533 52 109 0.0 1.0 0.00 0.00 0.00 91 1005.2
20260509103029 52 109 0.0 2.0 0.00 0.00 0.00 91 1005.1
20260509101527 53 109 0.0 1.0 0.00 0.00 0.00 91 1005.2
20260509100025 53 109 0.0 2.0 0.00 0.00 0.00 91 1005.2
20260509094523 53 110 1.0 3.0 0.00 0.00 0.00 91 1005.3
20260509093022 53 110 1.0 2.0 0.00 0.00 0.00 90 1005.4
20260509091519 53 111 0.0 2.0 0.00 0.00 0.00 90 1005.4
20260509090016 54 111 0.0 2.0 0.00 0.00 0.00 90 1005.5
20260509084521 54 111 0.0 2.0 0.00 0.00 0.00 89 1005.6
20260509083016 54 111 0.0 2.0 0.00 0.00 0.00 89 1005.7
20260509081512 55 112 0.0 2.0 0.00 0.00 0.00 89 1005.7
20260509080012 55 112 1.0 3.0 0.00 0.00 0.00 88 1005.7
20260509074507 55 112 0.0 4.0 0.00 0.00 0.00 88 1005.8
20260509073006 56 140 1.0 2.0 0.00 0.00 0.00 88 1005.9
20260509071504 56 140 0.0 2.0 0.00 0.00 0.00 88 1005.9
20260509070100 57 140 1.0 2.0 0.00 0.00 0.00 87 1006.1
20260509064606 57 140 1.0 3.0 0.00 0.00 0.00 86 1006.2